This demonstration page uses our WeatherBlox Daily Observations layout. Learn more.

Left ArrowRight Arrow

38.88101, -77.10428

Hourly Observations for July 17, 2020

Temp ( °F °C ) Dew Point ( °F °C ) Humidity (%) Winds ( mph kmh ) Pressure ( in mb ) Visibility ( mi km ) Precip ( " mm )
12:37 am 00:37 Mostly Cloudy 77 25 71 21.7 82 82 SSE 12 19 30.17 1022 10 16.0934 0 0
12:52 am 00:52 Mostly Cloudy 76 24.4 71 21.7 85 85 SSE 9 15 30.16 1021 10 16.0934 0 0
1:52 am 01:52 Cloudy 77 25 71 21.7 82 82 SSE 9 15 30.15 1021 10 16.0934 0 0
2:52 am 02:52 Cloudy 77 25 71 21.7 82 82 SSE 9 15 30.15 1021 10 16.0934 0 0
3:29 am 03:29 Cloudy 77 25 72 22.2 85 85 SSE 7 11 30.16 1021 10 16.0934 0 0
3:52 am 03:52 Cloudy 76 24.4 72 22.2 88 88 S 7 11 30.15 1021 10 16.0934 0 0
4:52 am 04:52 Mostly Cloudy 76 24.4 71 21.7 85 85 SSW 10 17 30.13 1020 10 16.0934 0 0
5:52 am 05:52 Mostly Cloudy 77 25 71 21.7 82 82 SSW 10 17 30.13 1020 10 16.0934 0 0
6:18 am 06:18 Mostly Cloudy 77 25 71 21.7 82 82 S 5 7 30.14 1021 10 16.0934 0 0
6:52 am 06:52 Cloudy 77 25 72 22.2 85 85 SSW 10 17 30.13 1020 10 16.0934 0 0
6:59 am 06:59 Mostly Cloudy 77 25 72 22.2 85 85 S 9 15 30.13 1020 10 16.0934 0 0
7:52 am 07:52 Partly Cloudy 79 26.1 72 22.2 79 79 SSW 10 17 30.13 1020 10 16.0934 0 0
8:52 am 08:52 Partly Cloudy 81 27.2 72 22.2 74 74 SW 10 17 30.13 1020 10 16.0934 0 0
9:52 am 09:52 Partly Cloudy 83 28.3 73 22.8 72 72 SSE 7 11 30.12 1020 10 16.0934 0 0
10:52 am 10:52 Mostly Cloudy 86 30 74 23.3 67 67 S 7 11 30.11 1020 10 16.0934 0 0
11:52 am 11:52 Partly Cloudy 88 31.1 74 23.3 63 63 VRB 5 7 30.1 1019 10 16.0934 0 0
12:52 pm 12:52 Mostly Cloudy 91 32.8 74 23.3 57 57 N 12 19 30.1 1019 10 16.0934 0 0
1:52 pm 13:52 Mostly Cloudy 91 32.8 73 22.8 56 56 N 9 15 30.09 1019 10 16.0934 0 0
2:52 pm 14:52 Mostly Cloudy 94 34.4 72 22.2 49 49 ENE 6 9 30.07 1018 10 16.0934 0 0
3:52 pm 15:52 Partly Cloudy 95 35 71 21.7 46 46 NNW 12 19 30.06 1018 10 16.0934 0 0
4:52 pm 16:52 Mostly Cloudy 95 35 69 20.6 43 43 N 9 15 30.04 1017 10 16.0934 0 0
5:52 pm 17:52 Mostly Cloudy 95 35 68 20 41 41 ENE 5 7 30.03 1017 10 16.0934 0 0
6:52 pm 18:52 Mostly Cloudy 94 34.4 66 18.9 40 40 N 6 9 30.03 1017 10 16.0934 0 0
7:52 pm 19:52 Mostly Cloudy 88 31.1 76 24.4 68 68 S 13 20 30.04 1017 10 16.0934 0 0
7:59 pm 19:59 Mostly Cloudy 88 31.1 76 24.4 68 68 S 9 15 30.04 1017 10 16.0934 0 0
8:52 pm 20:52 Mostly Cloudy 86 30 75 23.9 70 70 SSE 7 11 30.06 1018 10 16.0934 0 0
9:52 pm 21:52 Mostly Cloudy 84 28.9 76 24.4 77 77 S 6 9 30.06 1018 10 16.0934 0 0
10:52 pm 22:52 Mostly Cloudy 85 29.4 75 23.9 72 72 SSW 6 9 30.07 1018 10 16.0934 0 0
11:52 pm 23:52 Mostly Cloudy 83 28.3 77 25 82 82 S 8 13 30.07 1018 10 16.0934 0 0

Powered by AerisWeather